GW0720 Weather Reports


Display with metric or nautical units.
time (UTC)temp
F
wind
direction
speed
MPH
gust
MPH
rain 1hr
in
rain 24hr
in
rain mn
in
humidity
%
barometer
mb
20260901043123 74 0 0.0 0.0 0.00 0.00 0.00 91 1019.7
20260901041600 75 0 0.0 0.0 0.00 0.00 0.00 91 1019.6
20260901040125 75 0 0.0 0.0 0.00 0.00 0.00 90 1019.6
20260901034600 75 0 0.0 0.0 0.00 0.00 0.00 90 1019.7
20260901033131 76 0 0.0 0.0 0.00 0.00 0.00 89 1019.7
20260901031628 76 0 0.0 0.0 0.00 0.00 0.00 88 1019.6
20260901030059 77 0 0.0 0.0 0.00 0.00 0.00 88 1019.7
20260901024555 77 0 0.0 0.0 0.00 0.00 0.00 87 1019.5
20260901023109 78 0 0.0 0.0 0.00 0.00 0.00 86 1019.6
20260901021602 78 0 0.0 0.0 0.00 0.00 0.00 86 1019.7
20260901020101 78 0 0.0 0.0 0.00 0.00 0.00 85 1019.7
20260901014607 79 0 0.0 0.0 0.00 0.00 0.00 85 1019.7
20260901013057 79 0 0.0 2.0 0.00 0.00 0.00 85 1019.3
20260901011607 79 0 0.0 0.0 0.00 0.00 0.00 84 1019.3
20260901004607 79 0 0.0 0.0 0.00 0.00 0.00 84 1019.5
20260901003104 79 0 0.0 0.0 0.00 0.00 0.00 82 1019.4
20260901001621 79 0 0.0 1.0 0.00 0.00 0.00 80 1019.3
20260901000107 80 0 0.0 0.0 0.00 0.00 0.00 82 1018.9
20260831234558 81 0 0.0 0.0 0.00 0.00 0.00 79 1019.1
20260831233057 82 0 0.0 0.0 0.00 0.00 0.00 78 1019.1
20260831231609 83 0 0.0 0.0 0.00 0.00 0.00 77 1019.1
20260831230113 84 0 0.0 0.0 0.00 0.00 0.00 74 1019.0
20260831224557 85 0 0.0 0.0 0.00 0.00 0.00 73 1019.0
20260831223112 86 0 0.0 1.0 0.00 0.00 0.00 70 1019.1
20260831221606 87 0 0.0 0.0 0.00 0.00 0.00 68 1019.2
20260831220104 88 0 0.0 1.0 0.00 0.00 0.00 59 1018.9
20260831214605 89 240 1.0 4.0 0.00 0.00 0.00 59 1018.9
20260831213106 89 219 0.0 4.0 0.00 0.00 0.00 60 1018.9
20260831211601 89 199 0.0 3.0 0.00 0.00 0.00 61 1019.0
20260831210125 89 0 0.0 4.0 0.00 0.00 0.00 62 1018.9
20260831204627 89 213 1.0 4.0 0.00 0.00 0.00 60 1018.9
20260831203105 90 217 1.0 4.0 0.00 0.00 0.00 58 1019.0
20260831201602 90 0 0.0 8.0 0.00 0.00 0.00 59 1019.1
20260831200056 91 0 0.0 3.0 0.00 0.00 0.00 60 1019.1
20260831194627 91 235 1.0 3.0 0.00 0.00 0.00 58 1019.2
20260831193107 92 244 0.0 2.0 0.00 0.00 0.00 56 1019.3
20260831191606 92 0 0.0 4.0 0.00 0.00 0.00 60 1019.5
20260831184600 91 220 0.0 5.0 0.00 0.00 0.00 57 1019.8
20260831183127 93 0 0.0 3.0 0.00 0.00 0.00 56 1019.8
20260831181610 92 0 0.0 5.0 0.00 0.00 0.00 58 1019.8
20260831180401 93 228 0.0 6.0 0.00 0.00 0.00 60 1020.1
20260831174604 92 0 0.0 4.0 0.00 0.00 0.00 58 1020.1
20260831173131 92 269 0.0 3.0 0.00 0.00 0.00 59 1020.1
20260831171718 90 0 0.0 7.0 0.00 0.00 0.00 58 1020.2
20260831170058 90 269 0.0 3.0 0.00 0.00 0.00 60 1020.2
20260831164611 90 0 0.0 3.0 0.00 0.00 0.00 64 1020.3
20260831163104 90 234 0.0 3.0 0.00 0.00 0.00 62 1020.7
20260831161601 89 0 0.0 2.0 0.00 0.00 0.00 64 1020.6
20260831160106 88 0 0.0 2.0 0.00 0.00 0.00 65 1020.6
20260831154632 90 0 0.0 0.0 0.00 0.00 0.00 65 1020.6
20260831153105 88 130 0.0 2.0 0.00 0.00 0.00 69 1020.6
20260831151610 88 249 0.0 3.0 0.00 0.00 0.00 70 1020.6
20260831150109 88 0 0.0 3.0 0.00 0.00 0.00 69 1020.6
20260831144606 86 0 0.0 2.0 0.00 0.00 0.00 73 1020.6
20260831143130 85 248 0.0 4.0 0.00 0.00 0.00 73 1020.5
20260831141608 83 0 0.0 2.0 0.00 0.00 0.00 77 1020.5
20260831140105 81 0 0.0 4.0 0.00 0.00 0.00 79 1020.8
20260831134605 80 0 0.0 2.0 0.00 0.00 0.00 83 1020.6
20260831133103 78 28 0.0 3.0 0.00 0.00 0.00 87 1020.6
20260831131603 77 0 0.0 2.0 0.00 0.00 0.00 87 1020.6
20260831130057 76 0 0.0 2.0 0.00 0.00 0.00 90 1020.6
20260831124607 74 0 0.0 2.0 0.00 0.00 0.00 93 1020.5
20260831123059 73 0 0.0 1.0 0.00 0.00 0.00 96 1020.4
20260831121555 72 0 0.0 1.0 0.00 0.00 0.00 96 1020.3
20260831120104 72 0 0.0 1.0 0.00 0.00 0.00 96 1020.2
20260831114607 71 0 0.0 0.0 0.00 0.00 0.00 96 1020.1
20260831113109 71 0 0.0 0.0 0.00 0.00 0.00 96 1020.0
20260831111602 70 0 0.0 0.0 0.00 0.00 0.00 95 1019.9
20260831110056 70 0 0.0 0.0 0.00 0.00 0.00 95 1019.9
20260831104610 71 0 0.0 0.0 0.00 0.00 0.00 95 1020.0
20260831103106 71 0 0.0 0.0 0.00 0.00 0.00 95 1019.8
20260831101559 71 0 0.0 1.0 0.00 0.00 0.00 95 1019.5
20260831100103 71 0 0.0 0.0 0.00 0.00 0.00 95 1019.4
20260831094609 71 0 0.0 0.0 0.00 0.00 0.00 95 1019.4
20260831093100 71 0 0.0 0.0 0.00 0.00 0.00 95 1019.5
20260831091606 71 0 0.0 0.0 0.00 0.00 0.00 95 1019.4
20260831090105 72 0 0.0 0.0 0.00 0.00 0.00 95 1019.5
20260831084601 72 0 0.0 1.0 0.00 0.00 0.00 95 1019.4
20260831083105 72 0 0.0 0.0 0.00 0.00 0.00 95 1019.5
20260831081603 72 0 0.0 1.0 0.00 0.00 0.00 95 1019.5
20260831080056 71 0 0.0 0.0 0.00 0.00 0.00 95 1019.4
20260831074604 71 0 0.0 0.0 0.00 0.00 0.00 95 1019.5
20260831073101 71 0 0.0 0.0 0.00 0.00 0.00 95 1019.5
20260831071604 71 0 0.0 0.0 0.00 0.00 0.00 94 1019.5
20260831070106 72 0 0.0 0.0 0.00 0.00 0.00 94 1019.5
20260831064604 72 0 0.0 0.0 0.00 0.00 0.00 94 1019.6
20260831063058 72 0 0.0 0.0 0.00 0.00 0.00 94 1019.7
20260831061603 72 0 0.0 0.0 0.00 0.00 0.00 94 1019.9
20260831060104 72 0 0.0 0.0 0.00 0.00 0.00 94 1019.9
20260831054555 72 0 0.0 0.0 0.00 0.00 0.00 94 1020.0
20260831053110 72 0 0.0 0.0 0.00 0.00 0.00 93 1020.1
20260831051559 72 0 0.0 0.0 0.00 0.00 0.00 93 1020.2
20260831050115 73 0 0.0 0.0 0.00 0.00 0.00 93 1020.2
20260831044617 73 0 0.0 0.0 0.00 0.00 0.00 93 1020.3